Regional Weather Roundup
Issued by NWS

Home | Current Version | Previous Version | Text Only | Print | Product List | Glossary On
Versions: 1 2 3 4 5 6 7 8 9 10 11 12 13 14 15 16 17 18 19 20 21 22 23 24 25 26 27 28 29 30 31 32 33 34 35 36 37 38 39 40 41 42 43 44 45 46 47 48 49 50
000
ASUS43 KTOP 281908
RWRKS

WEATHER ROUNDUP FOR KANSAS
NATIONAL WEATHER SERVICE GOODLAND KS
200 PM CDT SAT MAY 28 2016

NOTE:  "FAIR" INDICATES FEW OR NO CLOUDS BELOW 12,000 FEET WITH NO
SIGNIFICANT WEATHER AND/OR OBSTRUCTIONS TO VISIBILITY.

KSZ001>006-013>018-027>032-041>047-282000-
NORTHWEST KANSAS

CITY           SKY/WX    TMP DP  RH WIND       PRES   REMARKS
GOODLAND       MOSUNNY   69  46  43 W10G16    29.99F
HAYS           MOSUNNY   72  52  49 W12       29.95S
HILL CITY      SUNNY     76  51  41 NW10      29.95S
RUSSELL        SUNNY     73  56  54 MISG      29.93S
$$

KSZ061>065-074>080-084>089-282000-
SOUTHWEST KANSAS

CITY           SKY/WX    TMP DP  RH WIND       PRES   REMARKS
DODGE CITY     SUNNY     74  51  44 NW10      29.98F
ELKHART          N/A    N/A N/A N/A MISG        N/A
GARDEN CITY    MOSUNNY   76  47  35 W8G18     29.99S
GREAT BEND     PTSUNNY   72  55  56 NW9       29.94F
LIBERAL        SUNNY     77  46  33 N5        30.01F
PRATT          SUNNY     74  53  48 NW13      29.95S
$$

KSZ066>073-081>083-090>101-282000-
SOUTHEAST KANSAS

CITY           SKY/WX    TMP DP  RH WIND       PRES   REMARKS
CHANUTE        MOSUNNY   77  62  59 SW12      29.92S
COFFEYVILLE    MOSUNNY   79  62  56 W9        29.93S
HUTCHINSON     MOSUNNY   77  58  51 NW13      29.93S
MEDICINE LODGE   N/A     81  51  35 VRB6      29.93S
NEWTON         SUNNY     73  55  53 W9        29.95S
PARSONS        MOSUNNY   79  63  57 W10       29.95R
WICHITA INTL   MOSUNNY   78  57  48 W7        29.93S
WICHITA JABRA  MOSUNNY   77  61  57 NW8       29.93S
WICHITA MCCONL MOSUNNY   76  59  56 W3        29.93S
WINFIELD       SUNNY     79  58  48 NW8       29.94S
$$

KSZ007>012-019>026-033>040-048>060-102>105-282000-
NORTHEAST KANSAS

CITY           SKY/WX    TMP DP  RH WIND       PRES   REMARKS
CONCORDIA      MOSUNNY   73  57  57 W13       29.90S
EMPORIA        MOSUNNY   73  58  59 W9        29.92S
LAWRENCE       PTSUNNY   73  60  63 W13       29.89R
MANHATTAN      MOSUNNY   75  58  55 W10G18    29.89S
MARYSVILLE     PTSUNNY   72  57  60 W9G20     29.88S
OLATHE IND     MOSUNNY   74  58  57 SW17      29.91R
OLATHE EXE     PTSUNNY   73  58  59 W13       29.90R
SALINA         MOSUNNY   75  59  57 W8        29.92R
TOPEKA BILLARD MOSUNNY   75  60  59 SW13      29.89R
TOPEKA FORBES  MOSUNNY   76  60  57 W13       29.89S
$$




USA.gov is the U.S. government's official web portal to all federal, state and local government web resources and services.